Home > Time Zones > World Clock > Weather > Italy > Turin > Past weeks

Flag for Italy Weather past 2 weeks in Turin, Italy

Now
43 °F

Clear.


Feels Like: 40 °F
Forecast: 36 / 54 °F
Wind: 5 mph from Northwest

Location: Torino / Bric Della Croce

Current Time: Feb 28, 2015 at 12:33:54 AM

Latest Report: Feb 27, 2015 at 11:55 PM


Visibility: 10 mi

Pressure: 29.89 "Hg

Humidity: 49%

Dew point: 25 °F

Location of TurinLocation

Historic Weather in Turin — Graph

°F

Turin temperature yesterday

Maximum temperature yesterday: 45 °F (at 2:55 PM)
Minimum temperature yesterday: 37 °F (at 12:55 AM)
Average temperature yesterday: 40 °F

Past Weeks' High & Low Weather Summary

 TemperatureHumidityPressure
High48 °F (Feb 25, 3:55 PM)100% (Feb 13, 1:55 AM)30.51 "Hg (Feb 13, 1:55 AM)
Low28 °F (Feb 14, 10:55 PM)16% (Feb 25, 3:55 AM)29.45 "Hg (Feb 22, 4:55 AM)
Average38 °F76%29.96 "Hg
* Reported Feb 12 10:55 PM — Feb 27 10:55 PM, Turin, Weather by CustomWeather, © 2015

Note: Actual official high and low records may vary slightly from our data, if they occured in-between our weather recording intervals... More about our weather records

Advertising

Turin weather history for previous 24 hours

 ConditionsComfort  
Time TempWeatherWind HumidityBarometerVisibility
10:55 PM
Fri, Feb 27
43 °FClear.3 mph46%29.86 "Hg10 mi
9:55 PM41 °FClear.6 mph53%29.86 "Hg10 mi
8:55 PM41 °FPassing clouds.7 mph66%29.86 "HgN/A
7:55 PM41 °FClear.7 mph57%29.86 "Hg10 mi
6:55 PM41 °FClear.6 mph61%29.83 "Hg10 mi
5:55 PM43 °FPassing clouds.3 mph66%29.83 "HgN/A
4:55 PM43 °FPassing clouds.5 mph71%29.83 "HgN/A
3:55 PM45 °FPassing clouds.5 mph61%29.83 "HgN/A
2:55 PM45 °FPassing clouds.6 mph66%29.83 "HgN/A
1:55 PM43 °FPassing clouds.7 mph71%29.83 "HgN/A
12:55 PM41 °FScattered clouds.No wind70%29.86 "HgN/A
11:55 AM41 °FScattered clouds.No wind70%29.86 "HgN/A
10:55 AM39 °FPartly sunny.No wind75%29.86 "HgN/A
9:55 AM39 °FPartly sunny.No wind75%29.86 "HgN/A
8:55 AM37 °FPartly sunny.No wind75%29.86 "HgN/A
7:55 AM37 °FPartly sunny.No wind75%29.86 "HgN/A
6:55 AM37 °FPassing clouds.No wind75%29.86 "HgN/A
5:55 AM37 °FClear.No wind75%29.86 "Hg10 mi
4:55 AM37 °FClear.No wind75%29.89 "Hg10 mi
3:55 AM39 °FClear.No wind70%29.89 "Hg10 mi
2:55 AM39 °FClear.No wind70%29.92 "Hg10 mi
1:55 AM39 °FClear.No wind70%29.95 "Hg10 mi
12:55 AM37 °FClear.No wind75%29.95 "Hg10 mi
Weather by CustomWeather, © 2015

See weather overviewHow to use our weather pages